Location: Bazinghen
(50.8246°N, 1.6616°E)
Time: 10:22:05
(UTC+00:00)

Cosmos 540 Rocket - Pass Details

Date: 09 April 2020
Orbit: 741 x 753 km, 74.1° (Epoch: 22 May)

Event Time Altitude Azimuth Distance (km) Brightness Sun altitude
Rises 21:25:52 0° 334° (NNW) 3,215 8.0 -23.0°
Reaches altitude 10° 21:28:14 10° 333° (NNW) 2,285 7.0 -23.2°
Maximum altitude 21:33:24 75° 249° (WSW) 780 3.5 -23.7°
Enters shadow 21:34:18 59° 186° (S) 862 3.5 -23.8°
